Home   Weather   Dublin   Past weeks
Flag for Ireland

Past Weather in Dublin, Ireland — Yesterday and Last 2 Weeks

Now
36 °F

Passing clouds.


Feels Like: 28 °F
Forecast: 41 / 36 °F
Wind: 10 mph from Southwest

Location: Dublin Airport

Current Time: Jan 22, 2019 at 6:22:45 am

Latest Report: Jan 22, 2019 at 5:30 am


Visibility: N/A

Pressure: 29.62 "Hg

Humidity: 81%

Dew Point: 30 °F

Location of DublinLocation

Past Weather in Dublin — Graph

°F

Dublin Temperature Yesterday

Maximum temperature yesterday: 43 °F (at 2:30 pm)
Minimum temperature yesterday: 30 °F (at 1:00 am)
Average temperature yesterday: 37 °F

High & Low Weather Summary for the Past Weeks

 TemperatureHumidityPressure
High52 °F (Jan 7, 6:30 am)100% (Jan 9, 6:30 am)30.54 "Hg (Jan 9, 6:30 am)
Low30 °F (Jan 17, 8:30 am)65% (Jan 17, 11:00 pm)29.53 "Hg (Jan 16, 1:30 pm)
Average43 °F87%30.12 "Hg
* Reported Jan 7 5:00 am — Jan 22 5:00 am, Dublin. Weather by CustomWeather, © 2019

Note: Actual official high and low records may vary slightly from our data, if they occured in-between our weather recording intervals... More about our weather records

Advertising

Dublin Weather History for the Previous 24 Hours

Scroll right to see more
 ConditionsComfort  
Time TempWeatherWind HumidityBarometerVisibility
5:00 am
Tue, Jan 22
34 °FPassing clouds.10 mph87%29.62 "HgN/A
4:30 am34 °FPassing clouds.9 mph93%29.62 "HgN/A
4:00 am34 °FPassing clouds.10 mph93%29.65 "HgN/A
3:30 am34 °FPassing clouds.12 mph93%29.65 "HgN/A
3:00 am34 °FPassing clouds.12 mph87%29.65 "HgN/A
2:30 am34 °FPassing clouds.13 mph87%29.68 "HgN/A
2:00 am34 °FPassing clouds.18 mph93%29.68 "HgN/A
1:30 am34 °FPassing clouds.13 mph93%29.68 "HgN/A
1:00 am36 °FPassing clouds.14 mph87%29.68 "HgN/A
12:00 am34 °FPassing clouds.12 mph93%29.68 "HgN/A
11:30 pm
Mon, Jan 21
36 °FPassing clouds.12 mph87%29.68 "HgN/A
11:00 pm36 °FPassing clouds.10 mph87%29.68 "HgN/A
10:30 pm36 °FPassing clouds.16 mph87%29.68 "HgN/A
10:00 pm34 °FPassing clouds.16 mph93%29.68 "HgN/A
9:30 pm36 °FPassing clouds.14 mph87%29.68 "HgN/A
9:00 pm36 °FPassing clouds.12 mph93%29.68 "HgN/A
8:30 pm36 °FPassing clouds.14 mph93%29.68 "HgN/A
8:00 pm37 °FPassing clouds.10 mph87%29.68 "HgN/A
7:30 pm37 °FPassing clouds.12 mph93%29.68 "HgN/A
7:00 pm37 °FLight rain. Passing clouds.10 mph93%29.71 "HgN/A
6:30 pm37 °FLight rain. Partly cloudy.22 mph93%29.71 "HgN/A
6:00 pm43 °FLight rain. Partly cloudy.17 mph87%29.68 "HgN/A
5:30 pm43 °FLight rain. Partly cloudy.17 mph87%29.71 "HgN/A
5:00 pm43 °FLight rain. Partly cloudy.18 mph81%29.71 "HgN/A
4:30 pm43 °FLight rain. Broken clouds.17 mph81%29.74 "HgN/A
4:00 pm43 °FLight rain. Broken clouds.20 mph81%29.77 "HgN/A
3:30 pm43 °FBroken clouds.18 mph76%29.80 "HgN/A
3:00 pm43 °FBroken clouds.16 mph76%29.83 "HgN/A
2:30 pm43 °FBroken clouds.18 mph71%29.89 "HgN/A
2:00 pm41 °FBroken clouds.14 mph76%29.92 "HgN/A
1:00 pm41 °FBroken clouds.12 mph70%29.98 "HgN/A
12:30 pm41 °FPartly sunny.13 mph70%30.01 "HgN/A
12:00 pm39 °FPartly sunny.12 mph70%30.04 "HgN/A
11:30 am39 °FPartly sunny.12 mph75%30.07 "HgN/A
11:00 am37 °FBroken clouds.10 mph81%30.09 "HgN/A
10:30 am37 °FBroken clouds.8 mph75%30.09 "HgN/A
10:00 am37 °FPartly sunny.7 mph75%30.09 "HgN/A
9:30 am36 °FPartly sunny.7 mph81%30.12 "HgN/A
9:00 am34 °FPartly sunny.6 mph87%30.15 "HgN/A
8:30 am34 °FPartly sunny.5 mph87%30.15 "HgN/A
8:00 am34 °FPassing clouds.7 mph87%30.18 "HgN/A
7:30 am36 °FPassing clouds.5 mph81%30.18 "HgN/A
7:00 am36 °FPassing clouds.6 mph87%30.21 "HgN/A
6:30 am36 °FPassing clouds.7 mph87%30.21 "HgN/A
6:00 am36 °FPassing clouds.7 mph87%30.21 "HgN/A
Weather by CustomWeather, © 2019

See weather overview